Wind_Speed
21 21 18 19 22 22 24 20 20 19 19 17 15 15 13 11 10 10 13 14 14 10 6 4 7 13 16 7 12 14 21 23 21 21 23 19 15 7 7 12 14 16 18 18 15 14 11 9 10
21 25 25 21 18 20 23 23 21 21 22 21 19 17 16 13 13 11 10 18 16 12 11 4 5 13 15 4 3 12 17 20 22 22 22 23 18 10 9 10 13 15 17 17 15 13 11 10 13
18 19 18 28 26 26 24 26 27 27 25 22 23 22 19 17 15 14 12 21 18 14 11 9 4 3 12 4 1 13 16 18 25 20 22 28 23 20 14 12 13 14 15 16 16 13 13 12 12
17 14 17 24 30 28 28 27 31 33 28 26 25 24 23 22 20 17 15 20 18 18 15 9 6 1 8 3 3 13 14 22 25 18 21 27 23 22 17 15 13 12 16 16 18 16 15 12 11
16 10 29 22 26 24 18 16 18 30 32 29 25 25 26 26 24 19 18 18 20 19 17 14 10 5 5 6 4 7 15 19 21 19 18 22 22 21 17 13 13 13 13 12 13 14 15 15 14
4 15 19 25 28 29 28 29 27 29 28 26 25 26 27 28 29 25 22 20 21 21 22 15 8 9 9 9 3 4 13 19 18 16 13 19 20 19 17 16 15 16 13 10 10 12 13 12 14
11 11 12 18 23 30 32 38 38 34 36 36 31 30 27 28 28 31 27 24 24 21 19 19 12 10 9 7 10 4 13 14 15 15 14 14 13 17 20 21 23 25 19 11 10 12 14 12 12
17 18 8 3 15 27 30 35 40 40 45 41 37 36 35 34 30 29 32 30 30 26 21 22 19 9 20 14 17 6 5 11 12 11 12 13 11 15 17 21 22 25 29 16 13 15 13 14 12
18 21 15 11 11 8 4 13 21 28 32 35 39 41 40 39 36 35 34 34 36 35 28 26 25 16 18 22 14 10 13 5 5 9 9 10 14 14 13 17 19 21 23 23 17 14 17 15 12
6 12 13 21 24 20 11 7 12 15 20 33 37 36 37 40 38 37 36 36 37 39 34 33 28 25 28 27 25 12 11 6 1 4 7 5 12 14 11 10 14 18 18 20 22 15 14 13 12
3 12 18 19 18 19 17 15 13 16 8 10 23 40 42 38 36 38 39 39 40 40 40 37 34 30 31 21 28 23 19 7 4 2 6 3 10 15 9 6 10 14 17 17 19 22 20 16 13
4 10 9 10 10 12 15 16 16 17 21 19 9 16 29 46 47 42 41 42 43 43 41 40 37 33 36 27 23 25 19 15 8 9 4 8 9 13 16 8 7 11 15 16 17 20 23 23 19
2 7 6 4 5 9 10 10 15 18 24 20 19 17 10 19 41 50 50 45 44 45 45 44 43 37 41 33 23 27 23 20 13 18 10 14 14 14 15 14 10 7 11 16 17 17 19 22 23
10 12 9 3 4 8 14 16 15 18 22 24 21 21 19 13 21 36 53 52 47 49 49 48 47 43 42 42 39 29 24 26 19 17 15 15 19 14 13 18 13 12 10 13 17 18 19 21 23
12 16 14 9 10 9 14 19 17 23 23 25 25 26 28 15 14 23 33 48 54 51 52 52 51 48 44 43 45 41 28 29 23 19 15 20 19 12 16 20 13 12 11 15 16 17 19 22 20
15 21 17 14 11 12 13 18 13 30 28 24 26 27 32 24 15 21 21 30 48 55 55 56 54 52 49 46 46 46 45 30 27 26 26 25 21 13 19 18 12 9 12 15 16 19 20 21 21
18 19 21 14 18 14 11 13 21 20 22 27 28 29 33 28 21 19 20 19 29 47 55 60 59 57 54 51 45 48 47 46 38 34 27 25 19 17 19 17 12 9 15 18 20 20 21 22 19
13 24 28 17 10 10 13 16 19 17 30 21 35 28 36 29 23 16 20 17 20 28 43 55 60 62 58 55 44 45 47 47 43 33 28 24 26 20 21 19 13 13 16 20 22 18 21 22 21
23 22 20 15 17 18 14 12 16 16 20 19 26 34 33 31 21 13 18 18 20 22 29 40 49 57 65 61 57 50 48 47 43 38 28 30 27 22 21 21 19 17 17 20 23 18 22 22 23
25 23 18 17 20 21 17 16 13 15 23 23 25 22 37 32 19 12 16 19 18 20 25 30 36 44 53 58 58 51 53 47 50 48 42 36 30 26 24 20 25 21 18 19 20 19 22 19 20
29 27 21 18 14 12 15 15 15 18 24 27 23 23 30 27 23 13 17 18 16 14 18 24 28 33 40 49 53 58 55 52 43 49 42 42 38 36 26 24 25 24 18 19 21 22 19 21 23
28 30 27 22 16 13 17 18 16 21 21 23 25 21 25 30 18 13 18 18 14 13 11 15 18 24 29 35 40 47 55 51 56 41 45 36 31 33 24 24 27 24 17 22 22 19 22 23 28
32 28 27 22 20 14 18 14 16 16 30 18 29 28 28 20 27 14 20 17 15 13 13 11 14 16 24 27 30 35 51 51 52 56 44 48 29 30 27 25 21 20 18 23 18 23 21 24 30
37 33 26 18 19 13 16 9 15 22 17 34 30 25 21 27 30 17 24 23 19 16 13 13 12 13 21 24 28 30 35 41 52 50 46 47 34 28 25 23 18 17 19 22 22 20 20 26 31
44 38 19 26 20 14 5 7 13 15 21 24 27 25 25 30 34 19 15 26 27 23 17 16 13 12 19 24 28 28 33 34 36 41 44 40 33 25 26 24 18 17 21 19 20 18 21 28 30
50 45 38 27 25 15 10 7 10 24 33 24 26 26 24 26 32 18 16 21 27 25 24 20 18 16 13 19 28 32 33 31 35 31 41 37 32 32 31 25 16 15 19 20 22 21 26 28 31
56 47 44 34 27 27 23 6 7 33 27 24 24 30 27 24 28 16 13 18 27 27 27 23 23 21 21 20 25 31 32 33 36 36 40 38 35 38 30 22 20 17 17 17 21 18 22 29 35
60 52 44 39 33 34 28 18 22 19 18 21 29 36 27 23 31 24 16 16 21 27 32 29 27 24 24 22 26 27 31 35 34 41 40 41 38 36 31 24 19 18 22 20 23 26 27 33 39
58 55 51 55 47 36 33 30 22 30 26 21 25 28 26 20 24 26 17 13 18 21 21 22 23 21 20 21 26 27 28 29 28 34 40 36 29 28 27 25 22 21 20 23 31 31 32 32 34
56 62 64 51 49 39 34 34 18 27 37 31 32 34 29 17 21 27 17 10 12 15 14 15 13 14 17 20 22 26 26 22 26 28 36 41 35 32 30 21 19 21 21 26 28 29 30 30 28
Wind_Direction
190 168 194 204 211 210 212 214 219 222 235 242 236 236 241 214 228 225 218 210 212 165 148 231 349 61 38 99 52 51 55 49 50 53 52 42 47 63 48 38 32 28 21 11 9 16 24 37 38
189 192 203 217 218 224 230 229 224 233 236 237 226 220 221 218 228 225 232 207 208 183 182 186 258 7 33 127 46 67 58 55 55 54 52 41 41 38 37 27 22 18 23 22 18 24 28 32 42
190 198 223 219 213 223 226 233 233 234 236 233 225 214 219 218 227 229 231 207 209 197 197 156 180 353 352 50 258 85 66 66 55 57 52 50 51 59 62 55 50 39 28 29 31 34 42 42 47
190 199 175 206 221 223 227 249 246 241 234 235 232 218 218 220 224 224 227 212 215 208 191 201 185 216 339 126 205 90 74 66 46 67 59 55 61 56 72 71 60 47 30 33 36 39 42 40 31
193 197 222 217 229 236 211 193 220 234 242 237 233 226 224 224 222 227 227 222 214 211 207 207 213 274 335 204 230 60 77 72 58 50 66 54 56 50 57 56 51 37 28 33 33 37 37 40 41
182 226 232 229 231 238 222 209 225 231 240 239 239 235 234 224 223 229 228 224 213 213 214 210 189 140 39 231 264 86 70 58 52 37 59 56 54 46 42 43 37 27 16 34 40 29 28 33 45
337 316 256 243 237 237 230 220 221 236 250 252 240 232 228 225 229 229 229 222 225 214 208 214 199 168 160 183 246 286 44 46 54 67 44 37 42 41 52 51 51 44 33 18 37 33 37 44 54
1 328 356 30 243 237 232 235 239 253 251 252 243 237 228 227 229 226 229 231 225 221 216 213 211 162 278 222 229 264 313 49 78 36 23 13 45 35 46 62 52 48 42 38 28 36 45 42 48
308 335 2 20 16 356 272 249 250 252 252 250 248 241 235 233 233 231 232 228 226 222 221 219 214 207 171 167 215 241 280 308 73 31 15 5 19 25 36 56 44 44 47 41 36 41 49 41 38
324 2 47 74 73 62 45 325 291 285 257 249 249 244 241 234 229 225 224 226 226 222 223 220 214 200 175 182 204 237 252 276 325 24 12 345 6 24 28 51 48 35 39 37 35 37 42 39 31
133 100 83 83 76 72 68 63 61 42 32 276 256 245 240 239 234 226 222 220 224 223 224 221 215 209 205 214 213 222 234 261 259 297 342 277 10 358 9 40 42 33 31 30 21 22 24 15 9
164 132 124 104 84 83 59 50 39 28 28 27 353 257 246 237 233 230 228 223 222 221 222 217 215 211 209 211 210 207 212 223 236 251 272 236 337 343 340 326 14 30 12 23 15 12 14 6 1
248 157 157 143 95 55 27 9 5 357 1 7 8 7 325 248 234 229 229 227 223 221 222 220 217 218 209 207 217 217 225 208 218 236 221 239 283 318 321 325 300 7 356 0 5 7 5 0 26
190 211 208 172 29 19 353 335 346 355 355 356 358 355 346 323 241 230 226 230 224 224 221 219 219 220 213 214 214 217 229 232 216 206 224 258 266 292 313 309 290 294 326 340 344 354 356 360 18
208 213 225 255 299 328 347 343 307 341 341 347 347 344 347 320 281 232 227 226 228 225 223 221 219 217 218 223 226 227 227 223 210 206 234 274 246 274 310 302 291 292 318 327 330 336 339 356 6
212 219 235 277 299 318 304 333 302 322 326 338 343 342 343 328 297 236 224 224 229 229 225 223 220 221 225 224 228 229 228 222 231 250 250 259 244 270 300 295 274 304 328 330 327 328 339 338 349
227 227 226 241 258 330 314 316 312 325 317 319 335 340 339 327 310 245 223 226 228 228 231 227 226 224 226 227 231 233 232 228 232 244 243 246 228 257 285 283 268 291 319 324 323 323 333 331 347
206 266 233 243 234 308 318 312 314 319 318 275 332 342 337 329 312 245 222 229 235 234 229 230 229 227 230 233 228 227 231 231 232 235 220 238 241 246 264 272 247 293 310 317 318 325 331 334 342
233 228 239 243 266 278 296 303 325 339 343 318 350 348 342 339 309 235 218 225 232 237 237 232 230 229 228 231 230 226 225 228 228 226 224 237 239 244 246 258 267 282 307 309 309 323 329 337 344
232 232 234 240 255 265 284 293 314 329 334 341 337 21 329 342 322 216 213 214 214 225 235 236 232 230 227 227 227 224 225 221 227 228 234 232 236 248 243 258 270 283 296 301 304 316 324 324 333
227 238 241 239 248 268 289 299 312 327 324 337 346 351 354 327 324 221 207 206 208 224 237 243 236 230 226 226 226 222 225 222 216 227 229 236 235 234 237 257 266 280 285 293 304 310 320 327 320
220 227 239 249 263 270 280 289 308 325 313 323 341 356 350 351 329 242 219 209 207 218 235 243 232 225 222 224 224 223 223 220 220 222 216 219 228 222 239 254 267 272 276 290 301 306 310 320 326
225 226 229 242 260 259 268 297 310 280 308 312 331 343 343 350 338 266 227 210 218 226 243 248 233 222 207 215 222 223 218 221 223 228 212 214 215 222 238 255 263 263 277 291 299 305 315 321 326
222 225 231 224 246 264 299 263 287 287 263 305 315 334 357 325 337 309 232 227 230 237 245 237 226 205 194 196 208 212 213 220 224 228 228 223 227 222 233 253 255 254 274 291 306 316 320 324 329
221 219 216 198 233 242 37 340 292 270 292 292 303 325 333 345 339 312 258 231 237 239 241 233 217 203 203 200 201 205 207 210 215 221 221 222 227 230 239 237 252 258 278 301 306 313 318 329 326
223 219 218 220 223 200 195 45 152 267 307 301 304 321 336 334 331 313 288 241 232 230 235 233 226 220 205 205 208 205 206 213 212 212 211 214 215 226 228 235 249 273 280 308 304 303 310 319 317
225 223 221 221 213 198 209 207 286 286 290 301 306 312 322 348 339 317 291 266 232 228 230 234 240 243 229 208 204 211 209 215 214 204 204 207 218 219 225 237 243 262 291 292 302 308 316 318 326
221 219 220 223 209 208 217 228 305 273 285 304 299 304 318 355 359 332 315 275 246 228 232 237 242 255 246 226 209 209 208 212 214 208 205 209 201 210 227 237 241 258 273 259 296 307 313 323 325
220 214 214 214 212 213 210 222 290 268 286 279 292 300 308 338 354 348 321 278 231 228 226 235 242 239 230 214 206 203 200 204 208 202 206 201 205 211 222 228 240 252 248 262 282 308 314 318 323
217 212 215 217 216 211 212 217 251 281 256 274 285 291 293 325 351 355 333 291 227 218 199 210 182 188 182 178 176 185 200 195 177 185 193 205 209 212 218 228 238 248 257 264 295 309 322 325 323
Height
11008 11012 11012 11014 11017 11019 11021 11024 11027 11030 11032 11034 11037 11039 11042 11043 11045 11048 11049 11050 11051 11054 11054 11053 11053 11050 11051 11051 11050 11049 11048 11047 11047 11045 11045 11046 11045 11045 11045 11045 11045 11044 11043 11041 11039 11038 11037 11036 11035
11005 11009 11011 11013 11015 11017 11020 11022 11025 11027 11030 11032 11035 11039 11040 11042 11044 11046 11047 11049 11051 11053 11053 11054 11054 11053 11053 11053 11052 11050 11049 11048 11048 11047 11047 11047 11047 11047 11047 11047 11047 11046 11045 11042 11040 11039 11038 11038 11037
11006 11008 11011 11012 11014 11016 11019 11020 11021 11024 11027 11030 11033 11036 11038 11040 11042 11044 11045 11048 11051 11053 11054 11053 11053 11055 11056 11054 11053 11051 11051 11049 11048 11048 11049 11048 11048 11048 11047 11048 11049 11048 11046 11044 11043 11041 11040 11040 11038
11011 11018 11014 11011 11013 11015 11018 11018 11018 11020 11023 11028 11031 11034 11036 11037 11039 11042 11043 11046 11050 11052 11053 11053 11053 11054 11057 11056 11054 11052 11052 11050 11050 11050 11051 11050 11050 11051 11050 11050 11050 11049 11048 11046 11045 11043 11042 11041 11039
11017 10988 11012 11012 11011 11015 11018 11016 11014 11017 11021 11026 11028 11031 11034 11035 11038 11040 11042 11044 11047 11049 11052 11053 11053 11055 11056 11056 11057 11054 11053 11050 11048 11051 11053 11053 11053 11053 11052 11052 11051 11050 11049 11048 11047 11045 11044 11042 11041
11018 11015 11013 11011 11011 11012 11016 11017 11014 11015 11019 11022 11025 11028 11031 11033 11036 11038 11040 11042 11044 11047 11050 11052 11054 11055 11055 11058 11058 11058 11054 11051 11051 11052 11054 11055 11055 11055 11055 11054 11053 11052 11051 11049 11048 11047 11045 11043 11043
11012 11015 11010 11005 11007 11009 11013 11016 11014 11014 11016 11018 11022 11024 11028 11030 11032 11035 11038 11041 11043 11045 11049 11051 11054 11054 11056 11059 11059 11059 11056 11055 11055 11054 11055 11057 11056 11057 11057 11056 11055 11054 11052 11051 11050 11048 11046 11045 11044
11006 11016 11005 11001 11004 11007 11010 11013 11014 11014 11014 11015 11018 11019 11023 11026 11027 11032 11035 11038 11040 11043 11046 11049 11052 11051 11055 11059 11060 11059 11058 11056 11055 11056 11057 11059 11059 11059 11059 11058 11058 11055 11054 11052 11051 11050 11048 11047 11046
11006 11009 11002 11001 11002 11003 11005 11006 11007 11008 11008 11011 11013 11013 11018 11021 11022 11026 11027 11034 11036 11040 11043 11046 11048 11049 11051 11054 11058 11058 11057 11057 11056 11056 11058 11061 11061 11060 11061 11061 11060 11058 11056 11055 11053 11051 11050 11049 11048
11014 11009 11005 11003 11004 11004 11003 11003 11002 11002 11002 11005 11007 11008 11011 11014 11017 11019 11022 11026 11031 11035 11039 11042 11045 11049 11050 11052 11055 11056 11057 11056 11056 11057 11058 11062 11062 11063 11063 11063 11062 11061 11058 11057 11055 11053 11052 11051 11049
11011 11011 11007 11006 11006 11006 11004 11004 11003 11001 11000 10999 10999 11002 11005 11007 11010 11013 11016 11019 11025 11029 11034 11036 11041 11045 11048 11050 11052 11054 11056 11056 11056 11057 11059 11061 11063 11064 11065 11064 11064 11063 11061 11059 11058 11056 11055 11054 11052
11007 11008 11009 11008 11007 11006 11005 11004 11003 11002 11001 10998 10996 10996 10996 11000 11003 11005 11008 11012 11017 11023 11026 11032 11035 11039 11044 11047 11049 11052 11053 11054 11054 11058 11059 11062 11063 11065 11066 11066 11065 11064 11063 11062 11061 11059 11057 11055 11053
11008 11009 11011 11009 11008 11007 11005 11003 11002 11001 10999 10997 10995 10993 10991 10991 10994 10997 11001 11005 11010 11015 11020 11026 11029 11033 11039 11043 11047 11049 11050 11051 11053 11056 11058 11061 11062 11065 11067 11067 11066 11065 11064 11064 11062 11061 11059 11056 11054
11008 11011 11009 11007 11005 11004 11003 11001 10998 10996 10996 10995 10992 10990 10987 10985 10986 10987 10992 10996 11003 11007 11013 11018 11022 11027 11033 11037 11041 11044 11048 11050 11052 11054 11057 11060 11061 11064 11065 11066 11067 11066 11065 11064 11063 11062 11059 11057 11055
11009 11008 11005 11003 11003 11001 10998 10999 10996 10994 10993 10992 10990 10986 10983 10980 10979 10980 10983 10990 10993 10999 11005 11010 11016 11021 11027 11032 11036 11040 11044 11047 11050 11052 11056 11059 11060 11063 11064 11066 11067 11066 11066 11065 11063 11061 11059 11058 11056
11006 11004 11004 11004 11003 10998 10997 10997 10995 10993 10990 10990 10987 10983 10979 10975 10973 10974 10977 10981 10985 10991 10996 11002 11009 11015 11021 11026 11031 11035 11040 11043 11047 11051 11054 11058 11059 11061 11063 11065 11066 11066 11066 11065 11063 11061 11059 11058 11058
11000 11001 11002 11003 11000 10996 10994 10994 10995 10993 10989 10989 10987 10982 10977 10972 10968 10968 10972 10976 10979 10983 10987 10994 11000 11007 11014 11019 11026 11030 11035 11040 11045 11049 11053 11056 11057 11059 11062 11064 11066 11065 11065 11065 11063 11061 11059 11058 11057
10999 11002 11000 11000 10997 10995 10995 10993 10994 10992 10989 10986 10983 10978 10975 10970 10964 10964 10968 10972 10975 10978 10982 10987 10992 10999 11005 11011 11019 11025 11031 11035 11041 11046 11050 11053 11055 11057 11060 11062 11064 11064 11064 11064 11062 11060 11058 11056 11056
10993 10995 10997 10997 10994 10990 10993 10993 10991 10988 10986 10986 10982 10977 10974 10968 10962 10962 10965 10969 10973 10975 10977 10980 10985 10990 10997 11004 11012 11020 11026 11030 11036 11042 11047 11050 11052 11055 11057 11060 11062 11063 11063 11062 11061 11060 11057 11054 11053
10989 10991 10993 10992 10992 10991 10992 10993 10994 10987 10984 10981 10981 10979 10979 10968 10961 10962 10965 10968 10970 10974 10975 10976 10978 10982 10989 10996 11004 11013 11019 11024 11030 11038 11043 11047 11050 11052 11055 11058 11060 11061 11061 11061 11059 11058 11056 11052 11049
10982 10986 10989 10988 10989 10991 10991 10990 10990 10987 10985 10983 10983 10982 10971 10962 10964 10965 10965 10968 10970 10972 10973 10972 10973 10976 10981 10989 10996 11004 11011 11018 11024 11030 11037 11043 11046 11049 11053 11056 11059 11059 11059 11059 11057 11055 11054 11052 11048
10978 10980 10981 10982 10983 10986 10987 10986 10985 10989 10984 10980 10985 10980 10974 10972 10967 10967 10967 10968 10970 10971 10972 10971 10971 10972 10977 10983 10989 10995 11003 11010 11018 11024 11031 11039 11041 11046 11050 11054 11056 11057 11058 11057 11055 11053 11051 11048 11046
10970 10976 10981 10981 10982 10981 10985 10985 10982 10986 10978 10978 10977 10977 10968 10966 10968 10968 10968 10967 10968 10970 10971 10971 10971 10971 10976 10979 10985 10990 10999 11007 11012 11019 11027 11034 11038 11044 11048 11052 11054 11055 11055 11053 11052 11050 11048 11046 11042
10966 10968 10972 10978 10980 10978 10983 10983 10981 10977 10977 10972 10975 10974 10973 10976 10969 10966 10965 10966 10967 10969 10970 10971 10971 10971 10974 10976 10982 10987 10994 10999 11006 11011 11019 11028 11033 11040 11044 11050 11052 11052 11052 11051 11050 11047 11045 11044 11040
10957 10962 10965 10977 10976 10977 10980 10982 10980 10973 10976 10975 10976 10972 10971 10968 10967 10964 10962 10961 10964 10967 10969 10970 10972 10971 10973 10976 10980 10984 10989 10994 11000 11006 11016 11026 11030 11036 11042 11047 11049 11050 11050 11050 11047 11045 11042 11041 11038
10948 10955 10962 10965 10970 10974 10980 10977 10974 10968 10969 10970 10969 10972 10973 10970 10965 10960 10957 10957 10958 10963 10966 10968 10971 10972 10974 10975 10980 10983 10987 10991 10997 11003 11012 11020 11028 11035 11039 11044 11046 11048 11047 11047 11045 11042 11039 11037 11035
10934 10948 10955 10961 10963 10968 10972 10972 10985 10971 10967 10965 10966 10968 10970 10965 10960 10957 10955 10952 10954 10958 10961 10965 10967 10969 10972 10973 10975 10979 10984 10988 10992 11000 11007 11017 11026 11031 11037 11041 11043 11044 11045 11045 11042 11038 11035 11032 11030
10926 10937 10949 10957 10958 10963 10967 10970 10973 10965 10962 10963 10964 10964 10966 10962 10956 10951 10949 10947 10949 10953 10957 10961 10962 10965 10966 10968 10971 10974 10979 10984 10989 10996 11005 11014 11023 11027 11033 11037 11039 11042 11042 11042 11039 11035 11032 11027 11026
10914 10930 10937 10941 10949 10956 10961 10960 10957 10958 10959 10960 10961 10961 10962 10961 10956 10952 10947 10944 10946 10950 10954 10956 10959 10960 10960 10962 10966 10970 10976 10980 10983 10992 11002 11012 11018 11026 11030 11034 11037 11039 11038 11037 11035 11032 11028 11027 11023
10900 10914 10922 10935 10940 10950 10953 10954 10953 10952 10953 10956 10956 10961 10961 10958 10955 10950 10945 10944 10945 10948 10952 10954 10956 10956 10957 10960 10964 10969 10974 10978 10983 10992 11001 11010 11016 11022 11026 11032 11034 11034 11033 11032 11031 11029 11027 11023 11020